Starlink 35810

operational
NORAD ID: 66575 Int'l Des: 2025-268 Owner: SPXS Country: US Constellation: starlink
LEOCIRCULAR

Über Starlink 35810

Beschreibung wird geladen...

Live-Position

3D-Globus wird geladen...

Nächste Überflüge

Höhenverlauf

Altitude vs Time

uPlot chart will show altitude changes over time

Zweizeiliger Elementsatz

1 66575U 25268U 26061.27255786 .00032150 00000-0 11730-2 0 9994
2 66575 43.0034 29.0999 0001725 279.6740 80.3917 15.27573578 16828
Epoch: 2. März 2026 • Age: 39 hours

Aktueller Status

Höhe 489.5 km
Geschwindigkeit 7.62 km/s
Subsatellitenpunkt -27.92°S, 148.98°W
Startdatum 21. Nov. 2025
Alter 0.2 years
Typ internet

Technische Details

Klassifizierung Payload
Masse 575.00 kg
Trockenmasse 530.00 kg
Gesamtmasse 575.00 kg
Länge 0.30 m
Durchmesser 4.10 m
Spannweite 29.00 m
Form Box + pan
Hersteller SPXS
Bus-Typ Starlink V2MO
Phasenstatus In Orbit
Besitzer/Staat SPXS/US

Große Konstellationen

Loading constellations...